contact:dominique.lefevre@mio.osupytheas.fr, maurice.libes@osupytheas.fr, didier.mallarino@osupytheas.fr
Project:EMSO http://www.emso-fr.org/EMSO-France
Depth: 2436.0 m
Title:EMSO Ligure Ouest : Data MII capteur OXYGEN
DateTime,Latitude,Longitude,Optode-Type,Optode_Serial,Oxygen,Saturation_Oxygen,Temperature
DateTime,Latitude,Longitude,Optode-Type,Optode_Serial,µmol.l-1,%,degC
2017-12-12T00:00:38,42.805,6.029,4330,1995,196.228,60.007,13.286
2017-12-12T00:03:38,42.805,6.029,4330,1995,196.225,60.007,13.287
2017-12-12T00:06:38,42.805,6.029,4330,1995,196.218,60.004,13.287
2017-12-12T00:09:38,42.805,6.029,4330,1995,196.281,60.023,13.286
2017-12-12T00:12:38,42.805,6.029,4330,1995,196.267,60.020,13.287
2017-12-12T00:15:38,42.805,6.029,4330,1995,196.238,60.011,13.287
2017-12-12T00:18:38,42.805,6.029,4330,1995,196.115,59.973,13.287
2017-12-12T00:21:38,42.805,6.029,4330,1995,196.087,59.964,13.286
2017-12-12T00:24:38,42.805,6.029,4330,1995,196.024,59.945,13.286
2017-12-12T00:27:38,42.805,6.029,4330,1995,196.121,59.975,13.287
2017-12-12T00:30:38,42.805,6.029,4330,1995,196.147,59.982,13.286
2017-12-12T00:33:38,42.805,6.029,4330,1995,196.250,60.014,13.286
2017-12-12T00:36:38,42.805,6.029,4330,1995,196.191,59.996,13.286
2017-12-12T00:39:38,42.805,6.029,4330,1995,196.231,60.009,13.287
2017-12-12T00:42:38,42.805,6.029,4330,1995,196.225,60.007,13.287
2017-12-12T00:45:38,42.805,6.029,4330,1995,196.143,59.984,13.288
2017-12-12T00:48:38,42.805,6.029,4330,1995,196.224,60.007,13.287
2017-12-12T00:51:38,42.805,6.029,4330,1995,196.117,59.974,13.287
2017-12-12T00:54:38,42.805,6.029,4330,1995,196.069,59.960,13.287
2017-12-12T00:57:38,42.805,6.029,4330,1995,196.042,59.951,13.287
2017-12-12T01:00:38,42.805,6.029,4330,1995,195.970,59.929,13.287
2017-12-12T01:03:38,42.805,6.029,4330,1995,195.798,59.878,13.288
2017-12-12T01:06:38,42.805,6.029,4330,1995,195.747,59.862,13.288
2017-12-12T01:09:38,42.805,6.029,4330,1995,195.732,59.857,13.287
2017-12-12T01:12:38,42.805,6.029,4330,1995,195.742,59.860,13.287
2017-12-12T01:15:38,42.805,6.029,4330,1995,195.698,59.847,13.288
2017-12-12T01:18:38,42.805,6.029,4330,1995,195.853,59.894,13.287
2017-12-12T01:21:37,42.805,6.029,4330,1995,195.902,59.909,13.288
2017-12-12T01:24:37,42.805,6.029,4330,1995,195.937,59.920,13.288
2017-12-12T01:27:37,42.805,6.029,4330,1995,195.924,59.918,13.289
2017-12-12T01:30:37,42.805,6.029,4330,1995,195.846,59.892,13.288
2017-12-12T01:33:37,42.805,6.029,4330,1995,195.787,59.874,13.287
2017-12-12T01:36:37,42.805,6.029,4330,1995,195.743,59.860,13.287
2017-12-12T01:39:37,42.805,6.029,4330,1995,195.676,59.839,13.287
2017-12-12T01:42:37,42.805,6.029,4330,1995,195.744,59.860,13.287
2017-12-12T01:45:37,42.805,6.029,4330,1995,195.599,59.816,13.288
2017-12-12T01:48:37,42.805,6.029,4330,1995,195.528,59.794,13.287
2017-12-12T01:51:37,42.805,6.029,4330,1995,195.799,59.877,13.287
2017-12-12T01:54:37,42.805,6.029,4330,1995,195.837,59.888,13.287
2017-12-12T01:57:37,42.805,6.029,4330,1995,195.725,59.854,13.287
2017-12-12T02:00:37,42.805,6.029,4330,1995,195.678,59.841,13.288
2017-12-12T02:03:37,42.805,6.029,4330,1995,195.641,59.830,13.288
2017-12-12T02:06:37,42.805,6.029,4330,1995,195.717,59.852,13.287
2017-12-12T02:09:37,42.805,6.029,4330,1995,195.768,59.868,13.288
2017-12-12T02:12:37,42.805,6.029,4330,1995,195.658,59.834,13.288
2017-12-12T02:15:37,42.805,6.029,4330,1995,195.516,59.790,13.287
2017-12-12T02:18:37,42.805,6.029,4330,1995,195.462,59.776,13.288
2017-12-12T02:21:37,42.805,6.029,4330,1995,195.420,59.761,13.287
2017-12-12T02:24:37,42.805,6.029,4330,1995,195.485,59.782,13.288
2017-12-12T02:27:37,42.805,6.029,4330,1995,195.531,59.795,13.287
2017-12-12T02:30:37,42.805,6.029,4330,1995,195.626,59.824,13.287
2017-12-12T02:33:37,42.805,6.029,4330,1995,195.610,59.819,13.287
2017-12-12T02:36:37,42.805,6.029,4330,1995,195.599,59.817,13.288
2017-12-12T02:39:37,42.805,6.029,4330,1995,195.644,59.830,13.288
2017-12-12T02:42:37,42.805,6.029,4330,1995,195.631,59.826,13.287
2017-12-12T02:45:37,42.805,6.029,4330,1995,195.653,59.833,13.287
2017-12-12T02:48:37,42.805,6.029,4330,1995,195.652,59.832,13.287
2017-12-12T02:51:37,42.805,6.029,4330,1995,195.582,59.810,13.287
2017-12-12T02:54:37,42.805,6.029,4330,1995,195.744,59.860,13.287
2017-12-12T02:57:37,42.805,6.029,4330,1995,195.679,59.840,13.287
2017-12-12T03:00:37,42.805,6.029,4330,1995,195.692,59.845,13.288
2017-12-12T03:03:37,42.805,6.029,4330,1995,195.598,59.818,13.289
2017-12-12T03:06:37,42.805,6.029,4330,1995,195.643,59.830,13.288
2017-12-12T03:09:37,42.805,6.029,4330,1995,195.667,59.841,13.290
2017-12-12T03:12:37,42.805,6.029,4330,1995,195.681,59.841,13.287
2017-12-12T03:15:37,42.805,6.029,4330,1995,195.748,59.862,13.288
2017-12-12T03:18:37,42.805,6.029,4330,1995,195.812,59.880,13.287
2017-12-12T03:21:37,42.805,6.029,4330,1995,195.716,59.853,13.288
2017-12-12T03:24:37,42.805,6.029,4330,1995,195.759,59.864,13.287
2017-12-12T03:27:37,42.805,6.029,4330,1995,195.798,59.876,13.287
2017-12-12T03:30:37,42.805,6.029,4330,1995,195.894,59.905,13.287
2017-12-12T03:33:37,42.805,6.029,4330,1995,195.954,59.926,13.288
2017-12-12T03:36:37,42.805,6.029,4330,1995,195.891,59.905,13.287
2017-12-12T03:39:37,42.805,6.029,4330,1995,195.814,59.881,13.287
2017-12-12T03:42:37,42.805,6.029,4330,1995,195.587,59.813,13.288
2017-12-12T03:45:37,42.805,6.029,4330,1995,195.693,59.845,13.288
2017-12-12T03:48:37,42.805,6.029,4330,1995,195.713,59.850,13.287
2017-12-12T03:51:37,42.805,6.029,4330,1995,195.663,59.836,13.287
2017-12-12T03:54:37,42.805,6.029,4330,1995,195.581,59.810,13.287
2017-12-12T03:57:37,42.805,6.029,4330,1995,195.574,59.809,13.288
2017-12-12T04:00:37,42.805,6.029,4330,1995,195.636,59.828,13.288
2017-12-12T04:03:37,42.805,6.029,4330,1995,195.758,59.865,13.288
2017-12-12T04:06:37,42.805,6.029,4330,1995,195.768,59.867,13.287
2017-12-12T04:09:37,42.805,6.029,4330,1995,195.761,59.866,13.288
2017-12-12T04:12:37,42.805,6.029,4330,1995,195.912,59.911,13.287
2017-12-12T04:15:37,42.805,6.029,4330,1995,195.893,59.905,13.287
2017-12-12T04:18:37,42.805,6.029,4330,1995,195.928,59.916,13.287
2017-12-12T04:21:37,42.805,6.029,4330,1995,196.108,59.971,13.287
2017-12-12T04:24:37,42.805,6.029,4330,1995,196.000,59.938,13.287
2017-12-12T04:27:37,42.805,6.029,4330,1995,195.925,59.916,13.287
2017-12-12T04:30:37,42.805,6.029,4330,1995,195.758,59.864,13.286
2017-12-12T04:33:37,42.805,6.029,4330,1995,195.596,59.814,13.287
2017-12-12T04:36:37,42.805,6.029,4330,1995,195.759,59.864,13.286
2017-12-12T04:39:37,42.805,6.029,4330,1995,195.955,59.924,13.287
2017-12-12T04:42:37,42.805,6.029,4330,1995,195.837,59.887,13.286
2017-12-12T04:45:37,42.805,6.029,4330,1995,195.761,59.864,13.286
2017-12-12T04:48:37,42.805,6.029,4330,1995,195.655,59.832,13.287
2017-12-12T04:51:37,42.805,6.029,4330,1995,195.598,59.815,13.286
2017-12-12T04:54:37,42.805,6.029,4330,1995,195.584,59.812,13.287
2017-12-12T04:57:37,42.805,6.029,4330,1995,195.537,59.796,13.286
2017-12-12T05:00:37,42.805,6.029,4330,1995,195.621,59.822,13.286
2017-12-12T05:03:37,42.805,6.029,4330,1995,195.738,59.858,13.287
2017-12-12T05:06:37,42.805,6.029,4330,1995,195.806,59.878,13.286
2017-12-12T05:09:37,42.805,6.029,4330,1995,195.739,59.858,13.287
2017-12-12T05:12:37,42.805,6.029,4330,1995,195.741,59.858,13.287
2017-12-12T05:15:37,42.805,6.029,4330,1995,195.583,59.810,13.287
2017-12-12T05:18:37,42.805,6.029,4330,1995,195.618,59.821,13.287
2017-12-12T05:21:37,42.805,6.029,4330,1995,195.735,59.856,13.286
2017-12-12T05:24:37,42.805,6.029,4330,1995,195.689,59.842,13.286
2017-12-12T05:27:37,42.805,6.029,4330,1995,195.686,59.841,13.286
2017-12-12T05:30:37,42.805,6.029,4330,1995,195.662,59.834,13.286
2017-12-12T05:33:37,42.805,6.029,4330,1995,195.816,59.881,13.286
2017-12-12T05:36:37,42.805,6.029,4330,1995,195.744,59.860,13.287
2017-12-12T05:39:37,42.805,6.029,4330,1995,195.705,59.847,13.286
2017-12-12T05:42:37,42.805,6.029,4330,1995,195.607,59.817,13.286
2017-12-12T05:45:37,42.805,6.029,4330,1995,195.712,59.850,13.287
2017-12-12T05:48:37,42.805,6.029,4330,1995,195.600,59.816,13.287
2017-12-12T05:51:37,42.805,6.029,4330,1995,195.531,59.795,13.287
2017-12-12T05:54:37,42.805,6.029,4330,1995,195.530,59.795,13.287
2017-12-12T05:57:37,42.805,6.029,4330,1995,195.774,59.869,13.287
2017-12-12T06:00:37,42.805,6.029,4330,1995,195.793,59.875,13.287
2017-12-12T06:03:37,42.805,6.029,4330,1995,195.699,59.847,13.287
2017-12-12T06:06:37,42.805,6.029,4330,1995,195.783,59.872,13.287
2017-12-12T06:09:37,42.805,6.029,4330,1995,195.781,59.871,13.287
2017-12-12T06:12:37,42.805,6.029,4330,1995,195.754,59.862,13.287
2017-12-12T06:15:37,42.805,6.029,4330,1995,195.574,59.808,13.287
2017-12-12T06:18:37,42.805,6.029,4330,1995,195.584,59.811,13.287
2017-12-12T06:21:37,42.805,6.029,4330,1995,195.599,59.816,13.287
2017-12-12T06:24:37,42.805,6.029,4330,1995,195.648,59.831,13.287
2017-12-12T06:27:37,42.805,6.029,4330,1995,195.719,59.852,13.287
2017-12-12T06:30:37,42.805,6.029,4330,1995,195.776,59.869,13.286
2017-12-12T06:33:37,42.805,6.029,4330,1995,195.878,59.901,13.287
2017-12-12T06:36:37,42.805,6.029,4330,1995,195.922,59.914,13.287
2017-12-12T06:39:37,42.805,6.029,4330,1995,195.844,59.890,13.287
2017-12-12T06:42:37,42.805,6.029,4330,1995,195.733,59.856,13.287
2017-12-12T06:45:37,42.805,6.029,4330,1995,195.675,59.838,13.286
2017-12-12T06:48:37,42.805,6.029,4330,1995,195.893,59.905,13.287
2017-12-12T06:51:37,42.805,6.029,4330,1995,195.742,59.859,13.286
2017-12-12T06:54:37,42.805,6.029,4330,1995,195.668,59.836,13.287
2017-12-12T06:57:37,42.805,6.029,4330,1995,195.552,59.801,13.287
2017-12-12T07:00:37,42.805,6.029,4330,1995,195.463,59.773,13.287
2017-12-12T07:03:37,42.805,6.029,4330,1995,195.457,59.772,13.287
2017-12-12T07:06:37,42.805,6.029,4330,1995,195.453,59.770,13.287
2017-12-12T07:09:37,42.805,6.029,4330,1995,195.375,59.748,13.288
2017-12-12T07:12:37,42.805,6.029,4330,1995,195.430,59.763,13.287
2017-12-12T07:15:37,42.805,6.029,4330,1995,195.320,59.730,13.287
2017-12-12T07:18:37,42.805,6.029,4330,1995,195.275,59.717,13.287
2017-12-12T07:21:37,42.805,6.029,4330,1995,195.127,59.671,13.286
2017-12-12T07:24:37,42.805,6.029,4330,1995,195.131,59.672,13.286
2017-12-12T07:27:37,42.805,6.029,4330,1995,195.110,59.665,13.286
2017-12-12T07:30:37,42.805,6.029,4330,1995,195.149,59.677,13.286
2017-12-12T07:33:37,42.805,6.029,4330,1995,195.304,59.724,13.286
2017-12-12T07:36:37,42.805,6.029,4330,1995,195.130,59.671,13.286
2017-12-12T07:39:37,42.805,6.029,4330,1995,195.306,59.725,13.286
2017-12-12T07:42:37,42.805,6.029,4330,1995,195.267,59.713,13.286
2017-12-12T07:45:37,42.805,6.029,4330,1995,195.356,59.740,13.286
2017-12-12T07:48:37,42.805,6.029,4330,1995,195.259,59.710,13.286
2017-12-12T07:51:37,42.805,6.029,4330,1995,195.316,59.728,13.286
2017-12-12T07:54:37,42.805,6.029,4330,1995,195.497,59.783,13.286
2017-12-12T07:57:37,42.805,6.029,4330,1995,195.710,59.849,13.286
2017-12-12T08:00:37,42.805,6.029,4330,1995,195.668,59.836,13.286
2017-12-12T08:03:37,42.805,6.029,4330,1995,195.747,59.860,13.286
2017-12-12T08:06:37,42.805,6.029,4330,1995,195.935,59.917,13.286
2017-12-12T08:09:37,42.805,6.029,4330,1995,195.914,59.911,13.286
2017-12-12T08:12:37,42.805,6.029,4330,1995,195.982,59.932,13.286
2017-12-12T08:15:37,42.805,6.029,4330,1995,196.104,59.969,13.286
2017-12-12T08:18:37,42.805,6.029,4330,1995,196.045,59.951,13.286
2017-12-12T08:21:37,42.805,6.029,4330,1995,196.008,59.940,13.286
2017-12-12T08:24:37,42.805,6.029,4330,1995,195.941,59.920,13.287
2017-12-12T08:27:37,42.805,6.029,4330,1995,195.965,59.927,13.286
2017-12-12T08:30:37,42.805,6.029,4330,1995,196.066,59.957,13.286
2017-12-12T08:33:37,42.805,6.029,4330,1995,196.257,60.015,13.286
2017-12-12T08:36:37,42.805,6.029,4330,1995,196.333,60.039,13.286
2017-12-12T08:39:37,42.805,6.029,4330,1995,196.359,60.047,13.286
2017-12-12T08:42:37,42.805,6.029,4330,1995,196.501,60.090,13.286
2017-12-12T08:45:37,42.805,6.029,4330,1995,196.487,60.086,13.286
2017-12-12T08:48:37,42.805,6.029,4330,1995,196.471,60.081,13.286
2017-12-12T08:51:37,42.805,6.029,4330,1995,196.364,60.048,13.286
2017-12-12T08:54:37,42.805,6.029,4330,1995,196.302,60.029,13.286
2017-12-12T08:57:37,42.805,6.029,4330,1995,196.416,60.064,13.286
2017-12-12T09:00:37,42.805,6.029,4330,1995,196.365,60.049,13.286
2017-12-12T09:03:37,42.805,6.029,4330,1995,196.332,60.039,13.286
2017-12-12T09:06:37,42.805,6.029,4330,1995,196.330,60.038,13.286
2017-12-12T09:09:37,42.805,6.029,4330,1995,196.053,59.953,13.286
2017-12-12T09:12:37,42.805,6.029,4330,1995,195.965,59.926,13.286
2017-12-12T09:15:37,42.805,6.029,4330,1995,196.259,60.016,13.286
2017-12-12T09:18:37,42.805,6.029,4330,1995,196.450,60.075,13.286
2017-12-12T09:21:37,42.805,6.029,4330,1995,196.588,60.116,13.286
2017-12-12T09:24:37,42.805,6.029,4330,1995,196.592,60.118,13.286
2017-12-12T09:27:37,42.805,6.029,4330,1995,196.677,60.144,13.286
2017-12-12T09:30:37,42.805,6.029,4330,1995,196.730,60.160,13.286
2017-12-12T09:33:37,42.805,6.029,4330,1995,196.802,60.182,13.286
2017-12-12T09:36:37,42.805,6.029,4330,1995,196.802,60.182,13.286
2017-12-12T09:39:37,42.805,6.029,4330,1995,196.822,60.188,13.286
2017-12-12T09:42:37,42.805,6.029,4330,1995,196.835,60.192,13.286
2017-12-12T09:45:37,42.805,6.029,4330,1995,196.901,60.212,13.286
2017-12-12T09:48:37,42.805,6.029,4330,1995,196.821,60.188,13.286
2017-12-12T09:51:37,42.805,6.029,4330,1995,196.816,60.186,13.286
2017-12-12T09:54:37,42.805,6.029,4330,1995,196.867,60.202,13.286
2017-12-12T09:57:37,42.805,6.029,4330,1995,196.861,60.200,13.286
2017-12-12T10:00:37,42.805,6.029,4330,1995,196.866,60.202,13.286
2017-12-12T10:03:37,42.805,6.029,4330,1995,196.831,60.191,13.286
2017-12-12T10:06:37,42.805,6.029,4330,1995,196.773,60.173,13.286
2017-12-12T10:09:37,42.805,6.029,4330,1995,196.718,60.156,13.286
2017-12-12T10:12:37,42.805,6.029,4330,1995,196.736,60.162,13.286
2017-12-12T10:15:37,42.805,6.029,4330,1995,196.747,60.165,13.286
2017-12-12T10:18:37,42.805,6.029,4330,1995,196.725,60.159,13.286
2017-12-12T10:21:37,42.805,6.029,4330,1995,196.724,60.158,13.286
2017-12-12T10:24:37,42.805,6.029,4330,1995,196.710,60.154,13.286
2017-12-12T10:27:37,42.805,6.029,4330,1995,196.628,60.129,13.286
2017-12-12T10:30:37,42.805,6.029,4330,1995,196.651,60.136,13.286
2017-12-12T10:33:37,42.805,6.029,4330,1995,196.545,60.103,13.286
2017-12-12T10:36:37,42.805,6.029,4330,1995,196.552,60.105,13.286
2017-12-12T10:39:37,42.805,6.029,4330,1995,196.445,60.073,13.286
2017-12-12T10:42:37,42.805,6.029,4330,1995,196.195,59.997,13.286
2017-12-12T10:45:37,42.805,6.029,4330,1995,195.983,59.932,13.286
2017-12-12T10:48:37,42.805,6.029,4330,1995,195.876,59.899,13.286
2017-12-12T10:51:37,42.805,6.029,4330,1995,195.895,59.905,13.286
2017-12-12T10:54:37,42.805,6.029,4330,1995,196.002,59.938,13.286
2017-12-12T10:57:37,42.805,6.029,4330,1995,195.958,59.924,13.286
2017-12-12T11:00:37,42.805,6.029,4330,1995,195.935,59.917,13.286
2017-12-12T11:03:37,42.805,6.029,4330,1995,195.786,59.872,13.286
2017-12-12T11:06:37,42.805,6.029,4330,1995,195.758,59.863,13.286
2017-12-12T11:09:37,42.805,6.029,4330,1995,195.760,59.864,13.286
2017-12-12T11:12:37,42.805,6.029,4330,1995,195.795,59.874,13.286
2017-12-12T11:15:37,42.805,6.029,4330,1995,195.696,59.844,13.286
2017-12-12T11:18:37,42.805,6.029,4330,1995,195.787,59.872,13.286
2017-12-12T11:21:37,42.805,6.029,4330,1995,195.818,59.882,13.286
2017-12-12T11:24:37,42.805,6.029,4330,1995,195.697,59.844,13.286
2017-12-12T11:27:37,42.805,6.029,4330,1995,195.675,59.837,13.286
2017-12-12T11:30:37,42.805,6.029,4330,1995,195.716,59.850,13.286
2017-12-12T11:33:37,42.805,6.029,4330,1995,195.861,59.894,13.286
2017-12-12T11:36:37,42.805,6.029,4330,1995,195.892,59.904,13.286
2017-12-12T11:39:37,42.805,6.029,4330,1995,196.028,59.945,13.286
2017-12-12T11:42:37,42.805,6.029,4330,1995,196.085,59.963,13.286
2017-12-12T11:45:37,42.805,6.029,4330,1995,195.964,59.926,13.286
2017-12-12T11:48:37,42.805,6.029,4330,1995,195.984,59.932,13.286
2017-12-12T11:51:37,42.805,6.029,4330,1995,195.782,59.870,13.286
2017-12-12T11:54:37,42.805,6.029,4330,1995,195.872,59.898,13.286
2017-12-12T11:57:37,42.805,6.029,4330,1995,195.736,59.856,13.286
2017-12-12T12:00:37,42.805,6.029,4330,1995,195.944,59.919,13.286
2017-12-12T12:03:37,42.805,6.029,4330,1995,196.102,59.968,13.286
2017-12-12T12:06:37,42.805,6.029,4330,1995,195.940,59.918,13.286
2017-12-12T12:09:37,42.805,6.029,4330,1995,195.846,59.890,13.286
2017-12-12T12:12:37,42.805,6.029,4330,1995,195.869,59.897,13.286
2017-12-12T12:15:37,42.805,6.029,4330,1995,195.756,59.862,13.286
2017-12-12T12:18:37,42.805,6.029,4330,1995,195.928,59.915,13.286
2017-12-12T12:21:37,42.805,6.029,4330,1995,195.974,59.928,13.286
2017-12-12T12:24:37,42.805,6.029,4330,1995,196.042,59.950,13.286
2017-12-12T12:27:37,42.805,6.029,4330,1995,196.027,59.945,13.286
